Temperature
26 27 27 27 27 27 27 27 27 27 27 27 27 26 26 26 25 24 24 23 22 20 19 18 18 17 17 17 17 17 17 16 16 16 16 15 15 15 14 14 14 14 14 14
27 27 27 27 27 26 27 26 27 27 26 26 26 26 27 26 25 24 23 22 21 20 19 18 17 17 17 17 17 17 16 16 16 16 15 15 15 14 14 14 14 14 14 14
27 27 27 26 26 26 27 27 26 26 26 26 26 26 27 26 25 24 23 22 21 20 19 18 17 17 17 17 17 16 16 16 16 16 15 15 15 14 14 14 14 14 14 13
27 27 26 26 26 26 26 27 26 26 26 26 26 26 27 26 26 25 23 22 21 20 19 18 17 17 17 16 16 16 16 16 16 16 15 15 14 14 14 14 13 13 13 13
26 26 26 26 26 26 26 26 26 26 26 26 26 26 27 26 25 25 24 23 22 20 19 18 18 17 17 16 16 16 16 16 16 15 15 15 14 14 14 13 13 13 13 13
26 26 26 26 26 26 26 26 26 26 26 25 26 25 26 26 25 25 24 23 21 20 19 18 17 17 17 16 16 16 16 16 15 15 15 14 14 14 13 13 13 13 13 12
26 26 26 26 25 26 26 25 25 25 25 25 26 25 25 26 25 25 24 22 21 20 19 18 17 17 16 16 16 15 15 15 15 15 14 14 14 13 13 13 13 12 12 12
25 25 26 25 25 25 25 25 24 23 24 25 25 25 25 25 24 23 22 21 20 20 19 18 17 16 16 16 15 15 15 15 15 14 14 14 14 13 13 13 12 12 12 12
24 24 25 25 25 25 25 25 26 24 24 24 25 25 25 24 24 23 22 21 20 19 18 18 17 16 16 15 15 15 15 14 14 14 14 13 13 13 13 12 12 12 12 12
23 23 24 25 25 25 25 25 24 24 23 23 24 25 25 24 23 23 23 21 20 19 18 17 16 16 15 15 15 15 15 14 14 14 13 13 13 13 12 12 12 12 11 11
23 22 23 24 24 24 24 24 23 24 23 22 22 24 24 23 23 23 22 21 19 18 17 17 16 15 15 15 15 14 14 14 14 13 13 13 13 12 12 12 12 12 11 11
21 22 22 23 24 24 24 23 23 22 22 22 22 23 24 23 23 22 21 20 19 18 17 16 16 15 15 14 14 14 14 14 13 13 13 13 12 12 12 12 12 11 11 11
20 20 20 22 23 23 23 23 22 22 22 22 21 22 23 23 22 21 20 19 18 17 16 16 15 15 15 14 14 14 13 13 13 13 13 12 12 12 12 12 11 11 11 11
19 20 20 20 21 22 22 22 22 21 21 21 22 22 23 22 22 21 19 18 17 16 16 15 15 14 14 14 14 13 13 13 13 12 12 12 12 12 12 11 11 11 11 11
19 19 20 21 21 21 21 21 22 21 21 21 22 22 22 22 21 20 19 18 17 16 15 15 14 14 14 14 13 13 13 13 13 12 12 12 12 11 11 11 11 11 11 11
18 18 19 20 21 21 21 21 21 21 21 22 22 21 22 21 20 19 19 18 17 16 15 15 14 14 14 13 13 13 13 13 12 12 12 12 11 11 11 11 11 11 11 11
18 17 18 19 21 20 20 21 21 21 21 21 21 21 21 20 20 19 18 18 17 16 15 15 14 14 13 13 13 13 12 12 12 12 12 11 11 11 11 11 11 11 11 11
16 17 18 19 19 18 20 21 21 20 20 21 20 20 20 19 19 18 17 17 16 16 15 14 14 13 13 13 13 13 12 12 12 12 11 11 11 11 11 11 11 11 11 11
17 16 17 18 18 19 20 20 19 19 19 19 19 19 18 18 18 19 17 16 16 15 14 14 14 13 13 13 12 12 12 12 12 12 12 11 11 11 11 11 11 11 11 11
17 16 16 17 17 18 19 19 19 19 19 18 18 17 17 17 19 19 16 15 15 14 14 14 14 13 13 12 12 12 12 12 12 12 12 11 11 11 11 11 11 11 11 11
17 16 16 17 17 19 18 18 18 18 17 16 16 16 16 17 17 16 15 15 14 14 14 13 13 13 13 12 12 12 12 12 12 12 11 11 11 11 11 11 11 11 11 11
17 17 17 17 17 18 17 17 16 15 15 15 15 15 15 15 15 15 15 14 14 13 13 13 13 13 12 12 12 12 12 12 12 11 11 11 11 11 11 11 11 11 11 11
17 16 16 16 17 16 16 15 14 14 14 14 14 14 14 14 15 15 14 14 13 13 13 13 13 12 12 12 12 12 12 12 11 11 11 11 11 11 11 11 11 11 11 11
16 15 15 15 16 16 15 15 14 14 14 14 14 14 14 14 14 14 14 13 13 13 13 13 13 12 12 12 12 12 12 12 11 11 11 11 11 11 11 11 11 11 12 11
15 15 15 15 16 15 15 15 14 14 14 14 14 14 14 14 14 14 13 13 13 13 13 12 12 12 12 12 12 12 11 11 11 11 11 11 11 11 11 11 11 11 11 11
15 14 14 15 15 15 14 14 14 13 13 13 14 14 14 14 14 13 13 13 13 13 12 12 12 12 12 12 12 11 11 11 11 11 11 12 12 12 12 12 12 12 11 11
Wind_Speed
4 5 4 2 4 5 5 7 7 5 2 6 8 7 6 5 6 7 6 6 6 5 5 6 7 7 7 7 7 7 7 7 6 5 5 5 5 4 3 3 3 3 3 3
6 3 2 2 3 5 6 8 7 4 2 5 7 8 7 6 7 6 6 6 6 5 5 6 6 7 7 8 7 7 7 7 7 5 4 4 4 3 3 2 2 2 2 2
4 2 1 3 4 6 7 8 8 8 6 7 8 9 7 5 5 5 6 6 6 6 6 6 7 7 7 7 7 7 6 6 6 6 4 4 3 3 3 3 2 2 2 2
3 1 3 5 6 8 8 5 7 8 9 7 6 9 5 4 5 5 5 5 6 6 6 7 8 8 7 7 7 7 6 5 6 6 5 6 4 3 3 2 2 2 2 2
3 3 5 6 6 7 7 6 8 9 11 11 9 9 5 3 4 4 3 4 5 5 6 6 7 8 8 7 7 7 7 6 6 6 5 5 4 3 3 2 2 1 2 2
5 4 4 5 6 4 5 6 8 9 10 11 8 9 7 3 4 4 2 3 3 4 4 5 5 6 7 7 7 7 7 6 6 6 6 5 5 4 3 3 2 2 1 1
5 4 2 3 5 4 5 8 7 8 8 8 3 7 5 3 3 3 4 3 2 3 4 4 5 6 7 8 8 8 8 7 6 6 5 5 5 5 5 4 3 3 2 2
7 5 1 3 6 7 7 9 9 10 10 8 5 6 3 3 3 3 3 2 1 2 3 4 5 6 7 8 8 8 8 7 6 5 5 4 4 4 3 3 2 3 2 1
6 6 3 4 6 7 7 8 9 11 13 13 8 7 4 1 3 2 2 1 1 1 2 4 4 5 7 8 8 8 8 7 6 5 4 4 3 3 3 3 3 2 1 1
6 8 7 5 6 5 7 7 7 9 10 11 10 8 5 4 4 4 3 2 1 1 2 4 4 5 6 7 7 7 7 6 5 5 4 3 3 3 3 3 2 2 2 2
7 7 8 7 7 8 7 7 8 9 9 10 10 5 5 5 5 5 5 3 2 2 2 4 5 5 6 6 7 7 7 6 5 5 4 3 3 3 3 3 3 3 3 3
5 6 10 10 7 7 8 8 7 8 9 10 11 7 4 6 6 5 5 3 1 1 2 4 5 6 6 6 6 6 6 6 5 5 5 4 4 3 3 3 3 3 3 3
6 5 9 8 6 5 6 6 7 9 10 10 11 7 3 5 5 5 4 2 0 1 2 4 5 5 6 6 6 5 5 5 5 5 5 4 4 3 3 3 3 3 3 3
6 7 10 13 11 11 11 10 10 10 10 11 12 12 9 8 7 6 4 1 1 2 3 3 4 5 5 5 6 6 5 5 5 5 5 4 4 4 3 3 3 3 3 3
5 10 12 15 14 13 14 14 12 13 13 13 13 12 10 10 9 7 4 2 1 2 3 3 4 4 5 5 5 5 5 5 4 4 4 4 4 3 3 3 4 3 3 3
5 8 11 14 13 13 14 14 13 13 14 14 14 13 10 9 7 5 3 3 3 3 3 3 4 4 5 5 5 6 5 5 4 4 4 4 4 4 4 4 4 3 3 3
6 7 9 11 11 11 11 10 10 10 11 11 12 10 9 9 8 6 4 3 3 3 3 3 4 4 4 4 5 5 5 5 5 4 4 3 3 3 3 3 3 3 3 3
9 9 7 9 10 9 5 4 6 8 7 7 7 8 10 10 8 5 2 2 3 3 3 3 4 5 4 4 5 5 5 5 5 4 3 3 3 2 3 3 3 3 3 3
9 8 7 7 10 9 5 3 5 7 6 5 7 8 9 8 6 2 1 1 2 3 3 4 5 5 5 5 5 6 5 5 5 4 3 3 3 3 3 2 3 3 2 3
5 7 7 8 9 7 4 8 9 9 5 7 8 8 8 7 6 3 2 2 1 1 2 4 4 5 5 5 5 5 5 5 4 3 3 3 3 2 2 2 2 2 3 3
4 6 8 10 9 5 6 9 8 5 6 10 10 8 7 7 7 5 3 2 1 2 3 4 5 5 5 5 5 5 4 3 3 3 3 3 2 3 2 2 2 2 3 3
7 6 6 6 7 4 7 7 5 8 9 9 9 8 8 8 6 4 2 1 1 2 3 4 5 4 4 4 4 4 4 3 3 3 3 3 3 2 1 1 1 2 3 3
5 5 6 5 6 7 8 7 8 8 9 9 8 9 8 7 5 3 1 1 1 3 3 4 5 4 4 4 4 4 4 4 4 4 3 3 2 2 1 2 1 2 2 3
6 6 8 9 9 10 10 10 9 8 9 10 9 9 8 6 4 3 2 1 2 3 4 4 5 4 4 4 4 3 4 4 4 4 3 3 3 2 1 2 2 2 2 3
10 8 9 11 12 12 9 9 10 11 10 9 9 9 7 5 4 3 2 2 2 3 4 5 5 4 4 4 4 4 4 4 3 3 3 2 2 2 1 1 2 2 2 2
9 9 10 10 11 11 13 12 12 12 10 9 9 8 7 5 4 3 3 2 3 4 4 5 5 5 5 5 4 4 4 4 4 3 3 2 2 1 1 1 1 0 1 1
Wind_Direction
211 234 240 282 290 301 288 279 277 284 289 264 264 270 270 233 226 222 216 212 208 203 188 177 178 181 179 176 175 179 184 184 183 186 198 201 205 206 204 205 199 208 219 224
225 234 328 315 287 274 274 274 279 280 257 271 275 273 264 236 227 229 227 221 217 208 189 180 181 184 184 178 178 179 186 189 189 191 200 207 207 203 195 196 181 204 216 225
266 346 354 267 268 279 277 282 292 297 287 250 265 263 247 208 212 225 234 231 223 215 207 198 193 191 185 183 185 183 185 187 189 191 193 187 186 197 196 191 190 191 195 217
273 303 271 275 285 289 284 303 291 282 272 269 264 282 262 218 222 225 230 228 224 216 207 204 200 197 193 190 183 182 184 183 183 189 198 193 203 209 194 190 190 192 195 208
271 296 289 289 304 297 300 306 284 276 272 274 257 270 273 212 252 250 232 234 228 217 208 202 201 198 194 187 181 179 180 183 182 188 191 196 204 195 176 167 163 198 191 192
276 277 295 305 305 291 289 275 260 254 258 261 263 271 280 289 299 306 295 255 229 213 200 198 191 184 184 180 174 172 176 179 180 184 190 198 197 190 183 184 197 212 192 183
267 239 223 300 295 257 271 281 273 263 255 266 277 269 283 334 331 314 312 302 247 213 196 193 185 181 179 177 175 174 174 176 179 183 185 193 198 197 200 201 205 219 221 207
289 277 295 312 305 300 281 280 282 287 287 290 273 263 296 4 345 333 329 315 276 221 201 198 193 186 179 175 175 174 173 175 175 176 177 183 193 206 200 203 225 231 245 242
304 293 310 300 296 290 281 275 291 284 281 280 273 272 268 296 317 320 324 312 294 249 203 191 181 180 177 173 175 174 171 168 167 169 171 178 190 199 198 198 219 239 247 252
306 291 291 297 276 257 282 295 285 276 280 280 274 273 292 324 329 321 316 313 296 219 187 176 174 172 169 170 170 167 162 161 162 166 175 179 182 189 199 211 214 229 243 255
306 286 286 281 277 292 286 276 278 277 277 280 283 294 0 347 334 323 323 321 293 235 189 172 168 164 159 162 165 164 163 161 165 171 173 177 184 188 198 211 220 230 243 251
319 292 286 280 279 285 280 283 281 277 275 273 280 287 24 355 340 328 322 322 326 243 184 168 164 163 158 158 163 165 166 168 172 175 177 185 193 199 210 219 232 239 249 252
320 287 285 274 241 241 269 280 285 285 279 271 274 281 16 359 345 336 327 322 342 155 155 161 163 163 161 161 162 163 169 173 177 180 185 191 200 206 217 229 237 244 246 250
292 267 271 283 293 298 288 284 282 279 276 277 275 286 305 322 327 329 323 297 196 164 154 161 161 166 162 162 163 165 166 172 178 185 192 197 209 219 229 240 245 248 247 251
296 274 276 279 283 283 281 281 277 270 275 278 286 288 304 317 314 311 299 255 204 185 173 172 171 171 169 165 163 166 170 175 177 188 199 209 219 226 234 244 252 252 248 254
296 284 287 280 275 272 273 273 271 271 273 274 280 288 310 311 304 300 278 240 218 205 195 182 173 171 175 172 171 175 175 177 181 191 204 218 228 232 240 246 251 249 253 263
276 277 286 283 290 279 266 273 272 271 274 279 283 300 318 312 306 291 270 243 227 212 194 184 178 176 178 179 180 178 179 179 184 195 207 219 231 237 244 252 253 254 260 269
256 269 273 283 287 263 286 318 301 288 292 300 307 315 316 314 304 286 259 251 240 215 194 187 177 172 174 177 177 176 180 181 185 195 201 208 222 233 243 248 254 260 265 277
232 251 269 273 276 275 281 326 328 301 294 348 333 329 329 328 298 257 8 297 240 201 186 181 177 171 171 175 177 178 182 184 187 191 195 203 216 227 241 251 259 267 274 286
211 228 257 270 278 281 334 349 327 289 257 10 344 332 330 322 303 311 325 291 250 181 168 168 166 161 169 172 172 180 185 191 195 190 192 198 213 232 244 252 263 279 281 280
270 255 256 266 267 273 3 352 330 296 335 341 330 327 321 317 317 314 302 268 209 175 165 163 160 164 168 167 174 181 183 189 191 183 180 188 207 226 236 249 269 286 290 296
282 280 271 276 268 279 14 350 339 327 323 318 322 319 317 316 312 303 296 270 192 170 168 166 162 162 162 170 180 183 182 184 183 179 178 187 207 225 210 215 271 286 287 287
270 290 296 283 289 314 320 321 317 308 305 313 316 309 307 307 302 299 283 248 208 183 177 174 169 165 166 177 184 181 173 173 175 178 183 191 198 208 209 221 245 271 277 305
279 287 275 274 278 291 298 301 304 306 309 309 305 301 298 296 293 285 256 230 221 192 183 180 174 171 172 174 175 170 163 161 161 169 177 185 193 204 204 245 269 294 316 327
281 281 276 274 289 297 289 299 311 311 308 302 301 300 294 292 282 268 249 232 219 194 180 177 175 173 170 167 167 167 162 162 167 172 178 191 197 201 224 255 292 301 329 342
258 263 272 284 299 297 294 298 304 302 298 296 298 300 297 287 279 266 244 223 201 183 172 174 175 173 168 168 167 168 169 175 177 179 188 197 203 209 252 274 281 209 258 181
Height
1505 1502 1498 1496 1495 1495 1495 1495 1494 1490 1489 1491 1489 1488 1487 1490 1492 1493 1495 1497 1499 1500 1502 1504 1505 1506 1507 1509 1510 1511 1513 1514 1515 1516 1518 1519 1520 1521 1521 1522 1522 1522 1523 1523
1501 1499 1497 1498 1497 1497 1495 1495 1492 1488 1490 1492 1489 1487 1483 1486 1488 1491 1493 1495 1497 1499 1500 1501 1502 1503 1505 1506 1508 1509 1511 1512 1512 1514 1514 1515 1517 1518 1519 1519 1519 1520 1520 1520
1499 1497 1499 1499 1497 1497 1493 1493 1492 1491 1489 1487 1489 1486 1480 1481 1486 1489 1491 1493 1494 1496 1498 1499 1500 1502 1503 1504 1506 1508 1509 1510 1511 1511 1512 1512 1513 1515 1516 1517 1517 1517 1517 1517
1497 1497 1498 1496 1495 1494 1493 1489 1490 1490 1490 1486 1487 1490 1478 1477 1481 1485 1488 1490 1492 1494 1495 1497 1498 1500 1501 1503 1505 1506 1507 1508 1509 1509 1510 1509 1511 1512 1513 1514 1514 1515 1515 1515
1497 1497 1497 1496 1494 1493 1491 1490 1489 1487 1487 1486 1482 1487 1478 1474 1479 1480 1484 1487 1489 1491 1493 1494 1496 1497 1499 1501 1503 1504 1505 1506 1507 1507 1508 1509 1509 1511 1511 1511 1512 1512 1513 1512
1496 1497 1497 1495 1493 1493 1491 1490 1487 1485 1482 1491 1482 1487 1482 1473 1477 1478 1482 1485 1487 1490 1491 1492 1494 1495 1497 1499 1500 1501 1503 1504 1505 1506 1507 1507 1508 1509 1510 1510 1511 1511 1511 1511
1496 1493 1494 1496 1494 1492 1491 1492 1495 1494 1490 1486 1477 1484 1482 1474 1477 1479 1482 1484 1486 1488 1489 1490 1491 1493 1494 1496 1498 1500 1501 1502 1503 1504 1505 1506 1507 1507 1508 1508 1509 1509 1510 1509
1501 1498 1492 1494 1495 1494 1490 1491 1500 1504 1495 1483 1478 1483 1477 1475 1478 1481 1482 1484 1485 1486 1487 1488 1490 1491 1492 1494 1496 1498 1499 1501 1502 1503 1503 1504 1505 1505 1506 1507 1507 1508 1507 1507
1504 1501 1493 1494 1494 1492 1490 1487 1484 1490 1487 1489 1480 1476 1471 1474 1477 1479 1481 1482 1483 1484 1485 1487 1488 1489 1491 1492 1494 1496 1498 1499 1501 1501 1502 1503 1504 1504 1505 1504 1505 1506 1505 1505
1505 1507 1495 1493 1493 1490 1489 1487 1489 1492 1499 1497 1484 1478 1476 1474 1476 1477 1478 1480 1482 1483 1484 1485 1487 1488 1489 1491 1493 1495 1496 1498 1499 1500 1501 1502 1502 1503 1503 1503 1504 1504 1504 1504
1507 1509 1499 1494 1493 1492 1491 1491 1491 1487 1487 1496 1494 1484 1472 1475 1476 1477 1478 1479 1481 1482 1483 1484 1485 1487 1488 1490 1492 1494 1495 1496 1498 1499 1500 1500 1501 1501 1502 1502 1502 1502 1502 1501
1510 1508 1503 1495 1490 1490 1489 1490 1492 1498 1494 1489 1489 1485 1473 1474 1476 1478 1478 1480 1481 1481 1482 1483 1484 1486 1487 1489 1491 1492 1493 1495 1496 1497 1498 1499 1499 1500 1500 1501 1501 1500 1500 1499
1515 1513 1510 1498 1494 1491 1490 1489 1489 1490 1490 1490 1492 1485 1472 1475 1476 1478 1479 1480 1480 1481 1481 1482 1483 1485 1486 1487 1489 1491 1492 1494 1495 1496 1497 1497 1498 1498 1498 1499 1499 1498 1498 1497
1518 1512 1511 1509 1500 1493 1492 1490 1489 1491 1491 1488 1484 1478 1473 1474 1476 1477 1479 1479 1480 1481 1481 1482 1482 1483 1485 1486 1487 1489 1491 1492 1493 1494 1495 1496 1497 1497 1497 1497 1497 1497 1496 1496
1516 1510 1503 1498 1494 1493 1492 1489 1487 1488 1486 1487 1481 1477 1475 1474 1476 1477 1478 1478 1479 1479 1480 1481 1482 1482 1483 1485 1486 1488 1489 1491 1492 1493 1494 1495 1495 1495 1495 1495 1495 1495 1495 1494
1516 1512 1505 1499 1492 1490 1489 1485 1484 1484 1482 1479 1478 1476 1474 1475 1476 1476 1477 1477 1477 1478 1479 1479 1481 1481 1482 1483 1485 1486 1488 1489 1490 1491 1492 1493 1493 1494 1494 1493 1493 1493 1493 1492
1514 1513 1508 1499 1489 1488 1488 1481 1480 1480 1477 1477 1477 1477 1476 1475 1475 1475 1476 1476 1477 1478 1478 1479 1480 1480 1481 1483 1484 1485 1486 1488 1489 1490 1491 1491 1492 1492 1492 1492 1491 1491 1490 1490
1515 1512 1507 1499 1495 1497 1483 1477 1477 1478 1477 1476 1477 1477 1477 1476 1475 1475 1475 1476 1476 1477 1477 1478 1479 1479 1480 1482 1483 1484 1485 1486 1487 1488 1489 1490 1490 1490 1490 1490 1490 1489 1488 1488
1511 1512 1507 1501 1495 1485 1479 1479 1480 1481 1479 1479 1479 1479 1478 1476 1473 1472 1474 1475 1476 1476 1476 1477 1478 1478 1480 1481 1482 1483 1484 1485 1486 1487 1488 1488 1489 1489 1489 1489 1488 1488 1487 1486
1508 1510 1509 1501 1499 1492 1484 1481 1481 1480 1478 1481 1481 1480 1479 1477 1471 1471 1474 1475 1475 1475 1475 1476 1477 1478 1479 1480 1481 1482 1483 1484 1485 1486 1486 1487 1487 1487 1487 1487 1487 1486 1485 1484
1505 1505 1504 1499 1494 1484 1485 1484 1482 1483 1486 1484 1483 1481 1480 1478 1477 1476 1474 1474 1474 1474 1474 1475 1476 1477 1478 1479 1480 1481 1482 1483 1484 1485 1485 1486 1486 1486 1486 1486 1486 1485 1484 1483
1503 1501 1499 1496 1493 1490 1487 1487 1488 1490 1488 1485 1484 1482 1481 1478 1476 1475 1474 1473 1473 1473 1474 1475 1476 1476 1477 1478 1479 1480 1481 1482 1483 1483 1484 1484 1485 1485 1486 1485 1485 1484 1483 1483
1502 1501 1499 1498 1495 1491 1491 1491 1490 1489 1486 1484 1482 1481 1479 1476 1475 1474 1473 1473 1473 1473 1473 1474 1475 1476 1476 1477 1478 1479 1479 1480 1481 1482 1483 1483 1484 1484 1485 1485 1484 1484 1483 1483
1500 1501 1500 1496 1490 1490 1489 1489 1488 1486 1485 1482 1481 1479 1476 1475 1474 1473 1473 1472 1472 1472 1473 1473 1474 1475 1476 1476 1477 1478 1478 1479 1480 1481 1482 1483 1483 1484 1484 1484 1484 1483 1483 1482
1503 1501 1498 1494 1490 1488 1486 1486 1485 1484 1482 1480 1478 1477 1475 1473 1472 1472 1472 1471 1471 1471 1472 1473 1474 1475 1475 1475 1476 1477 1478 1479 1480 1481 1482 1482 1483 1484 1483 1483 1483 1483 1482 1481
1500 1498 1496 1491 1489 1488 1485 1484 1483 1481 1479 1477 1476 1474 1472 1472 1471 1470 1470 1470 1470 1471 1471 1472 1473 1474 1474 1475 1476 1477 1478 1479 1479 1480 1481 1482 1483 1483 1483 1483 1482 1481 1480 1479